QPF
0.01 0.01 0.01 0.01 0.01 0.01 0.01 0.02 0.02 0.01 0.01 0.02 0.02 0.02 0.02 0.02 0.02 0.02 0.02 0.01 0.01 0.01 0.01 0.01 0.02 0.05 0.08 0.10 0.10 0.11 0.11 0.10 0.12 0.11 0.09 0.10 0.11 0.10 0.08 0.07 0.09 0.14 0.15 0.15
0.01 0.01 0.00 0.01 0.01 0.02 0.02 0.02 0.02 0.01 0.02 0.03 0.02 0.02 0.03 0.02 0.02 0.02 0.01 0.01 0.01 0.01 0.01 0.01 0.02 0.05 0.06 0.08 0.08 0.08 0.07 0.07 0.10 0.13 0.10 0.11 0.13 0.12 0.10 0.09 0.09 0.14 0.16 0.15
0.00 0.01 0.01 0.01 0.01 0.01 0.01 0.02 0.01 0.01 0.02 0.03 0.03 0.03 0.03 0.03 0.02 0.01 0.01 0.01 0.01 0.01 0.01 0.01 0.02 0.05 0.06 0.06 0.06 0.06 0.06 0.07 0.07 0.10 0.11 0.12 0.15 0.14 0.13 0.11 0.11 0.15 0.17 0.16
0.00 0.00 0.00 0.01 0.01 0.01 0.01 0.00 0.01 0.01 0.02 0.03 0.04 0.06 0.03 0.03 0.02 0.02 0.02 0.01 0.01 0.01 0.02 0.02 0.03 0.04 0.07 0.06 0.06 0.06 0.07 0.07 0.07 0.09 0.11 0.13 0.15 0.15 0.12 0.12 0.13 0.16 0.20 0.18
0.00 0.00 0.00 0.00 0.01 0.02 0.02 0.01 0.01 0.01 0.02 0.03 0.03 0.06 0.03 0.02 0.02 0.02 0.03 0.02 0.01 0.01 0.03 0.04 0.03 0.04 0.07 0.06 0.06 0.07 0.09 0.08 0.07 0.08 0.10 0.15 0.16 0.16 0.13 0.10 0.11 0.12 0.16 0.17
0.00 0.00 0.00 0.00 0.00 0.01 0.02 0.02 0.01 0.02 0.04 0.04 0.02 0.04 0.03 0.02 0.02 0.02 0.02 0.02 0.01 0.01 0.04 0.05 0.05 0.06 0.06 0.07 0.06 0.06 0.07 0.06 0.06 0.08 0.11 0.16 0.17 0.16 0.16 0.12 0.11 0.11 0.13 0.16
0.01 0.00 0.00 0.01 0.01 0.01 0.02 0.03 0.04 0.05 0.05 0.03 0.01 0.02 0.03 0.02 0.02 0.02 0.02 0.02 0.02 0.01 0.03 0.06 0.07 0.09 0.06 0.06 0.06 0.06 0.07 0.06 0.05 0.07 0.09 0.13 0.15 0.15 0.16 0.16 0.12 0.11 0.11 0.15
0.01 0.01 0.00 0.01 0.01 0.02 0.02 0.03 0.03 0.03 0.03 0.02 0.02 0.03 0.02 0.03 0.03 0.02 0.02 0.03 0.03 0.02 0.03 0.05 0.08 0.10 0.07 0.06 0.05 0.04 0.04 0.06 0.05 0.06 0.07 0.11 0.13 0.14 0.15 0.14 0.12 0.09 0.09 0.11
0.02 0.01 0.01 0.01 0.01 0.02 0.02 0.02 0.02 0.03 0.02 0.02 0.03 0.04 0.03 0.02 0.02 0.02 0.03 0.04 0.04 0.04 0.04 0.06 0.09 0.11 0.09 0.06 0.05 0.04 0.04 0.06 0.07 0.07 0.07 0.08 0.09 0.11 0.13 0.12 0.11 0.10 0.09 0.10
0.02 0.03 0.01 0.01 0.02 0.02 0.02 0.02 0.02 0.02 0.02 0.02 0.02 0.03 0.05 0.04 0.03 0.03 0.03 0.05 0.06 0.06 0.07 0.07 0.08 0.11 0.10 0.07 0.04 0.04 0.05 0.06 0.08 0.08 0.07 0.08 0.08 0.08 0.13 0.13 0.10 0.10 0.10 0.10
0.02 0.03 0.02 0.02 0.03 0.03 0.03 0.03 0.02 0.02 0.02 0.02 0.02 0.02 0.06 0.05 0.04 0.04 0.04 0.05 0.06 0.07 0.08 0.11 0.09 0.09 0.09 0.09 0.07 0.06 0.06 0.06 0.06 0.07 0.08 0.09 0.09 0.09 0.11 0.14 0.14 0.13 0.12 0.11
0.02 0.02 0.02 0.02 0.02 0.02 0.03 0.03 0.03 0.02 0.02 0.02 0.02 0.02 0.04 0.05 0.04 0.03 0.03 0.04 0.06 0.10 0.12 0.13 0.11 0.08 0.09 0.09 0.09 0.08 0.08 0.07 0.06 0.06 0.07 0.08 0.08 0.09 0.10 0.11 0.13 0.15 0.16 0.14
0.04 0.03 0.02 0.01 0.02 0.02 0.02 0.02 0.02 0.02 0.02 0.01 0.01 0.01 0.02 0.04 0.05 0.04 0.03 0.04 0.07 0.09 0.12 0.13 0.11 0.10 0.10 0.10 0.09 0.08 0.07 0.08 0.08 0.07 0.06 0.05 0.06 0.06 0.07 0.07 0.08 0.10 0.13 0.13
0.04 0.03 0.02 0.02 0.02 0.01 0.01 0.01 0.01 0.02 0.02 0.01 0.01 0.02 0.02 0.03 0.04 0.05 0.04 0.04 0.06 0.08 0.09 0.10 0.10 0.11 0.12 0.10 0.08 0.07 0.07 0.10 0.09 0.08 0.07 0.06 0.06 0.06 0.06 0.05 0.05 0.06 0.08 0.09
0.02 0.02 0.01 0.02 0.01 0.01 0.01 0.01 0.01 0.01 0.01 0.01 0.01 0.02 0.02 0.03 0.05 0.05 0.05 0.04 0.04 0.06 0.08 0.10 0.13 0.14 0.11 0.10 0.08 0.07 0.08 0.09 0.09 0.08 0.07 0.07 0.07 0.06 0.06 0.04 0.04 0.04 0.05 0.06
0.01 0.01 0.00 0.01 0.01 0.01 0.01 0.01 0.01 0.01 0.01 0.01 0.01 0.01 0.01 0.02 0.03 0.04 0.04 0.03 0.04 0.06 0.07 0.08 0.11 0.11 0.08 0.08 0.07 0.05 0.06 0.06 0.06 0.07 0.07 0.06 0.06 0.07 0.06 0.04 0.04 0.04 0.04 0.04
0.01 0.01 0.01 0.00 0.00 0.01 0.01 0.01 0.01 0.01 0.01 0.01 0.01 0.01 0.01 0.01 0.01 0.02 0.03 0.03 0.04 0.05 0.05 0.06 0.07 0.07 0.07 0.06 0.05 0.04 0.05 0.06 0.06 0.05 0.06 0.05 0.05 0.06 0.06 0.04 0.04 0.04 0.04 0.04
0.01 0.01 0.01 0.01 0.00 0.01 0.01 0.02 0.01 0.01 0.01 0.01 0.01 0.01 0.01 0.01 0.01 0.02 0.02 0.03 0.03 0.03 0.04 0.05 0.06 0.05 0.04 0.05 0.05 0.04 0.05 0.06 0.06 0.05 0.04 0.04 0.04 0.05 0.05 0.05 0.04 0.03 0.03 0.03
0.01 0.01 0.01 0.01 0.01 0.01 0.01 0.01 0.01 0.01 0.01 0.01 0.01 0.01 0.01 0.01 0.01 0.01 0.01 0.02 0.02 0.03 0.03 0.04 0.05 0.05 0.05 0.04 0.04 0.05 0.06 0.06 0.06 0.05 0.05 0.04 0.04 0.05 0.06 0.06 0.05 0.04 0.03 0.03
0.01 0.01 0.01 0.01 0.01 0.01 0.01 0.01 0.01 0.00 0.00 0.00 0.01 0.01 0.01 0.01 0.01 0.01 0.02 0.02 0.02 0.03 0.03 0.04 0.05 0.07 0.07 0.04 0.04 0.05 0.05 0.05 0.05 0.05 0.05 0.04 0.04 0.05 0.06 0.06 0.05 0.04 0.03 0.03
0.01 0.01 0.02 0.01 0.01 0.01 0.00 0.00 0.00 0.00 0.00 0.00 0.00 0.00 0.01 0.01 0.01 0.02 0.02 0.02 0.02 0.03 0.03 0.04 0.05 0.05 0.06 0.05 0.05 0.05 0.05 0.05 0.05 0.04 0.04 0.04 0.04 0.04 0.04 0.04 0.04 0.04 0.03 0.03
0.00 0.01 0.01 0.01 0.02 0.01 0.00 0.00 0.00 0.00 0.00 0.00 0.00 0.00 0.00 0.01 0.01 0.01 0.01 0.02 0.02 0.02 0.03 0.03 0.04 0.04 0.05 0.05 0.05 0.06 0.05 0.04 0.04 0.04 0.03 0.03 0.03 0.03 0.03 0.03 0.03 0.03 0.02 0.03
0.01 0.01 0.01 0.01 0.01 0.00 0.00 0.00 0.00 0.00 0.00 0.00 0.00 0.00 0.00 0.01 0.01 0.01 0.01 0.01 0.02 0.02 0.02 0.03 0.03 0.04 0.04 0.04 0.04 0.05 0.05 0.04 0.03 0.03 0.03 0.02 0.02 0.03 0.03 0.03 0.03 0.02 0.02 0.02
0.01 0.01 0.01 0.01 0.01 0.00 0.00 0.00 0.00 0.01 0.01 0.00 0.00 0.00 0.01 0.01 0.01 0.01 0.01 0.02 0.02 0.02 0.03 0.03 0.03 0.03 0.04 0.04 0.04 0.04 0.04 0.03 0.02 0.02 0.03 0.02 0.02 0.02 0.03 0.03 0.03 0.02 0.02 0.02
0.00 0.01 0.01 0.01 0.01 0.01 0.01 0.01 0.01 0.01 0.00 0.00 0.00 0.00 0.00 0.01 0.01 0.01 0.02 0.02 0.03 0.03 0.03 0.03 0.03 0.03 0.03 0.03 0.04 0.04 0.04 0.03 0.03 0.02 0.02 0.02 0.02 0.02 0.02 0.03 0.03 0.02 0.02 0.02
0.00 0.00 0.01 0.02 0.01 0.02 0.01 0.01 0.01 0.01 0.01 0.01 0.01 0.01 0.01 0.01 0.01 0.02 0.02 0.03 0.03 0.03 0.03 0.03 0.03 0.04 0.03 0.03 0.03 0.04 0.03 0.03 0.03 0.02 0.02 0.02 0.02 0.02 0.02 0.02 0.03 0.02 0.02 0.02
MSLP
1022.97 1023.29 1023.61 1023.85 1023.93 1023.77 1023.35 1022.68 1021.83 1020.90 1020.01 1019.27 1018.76 1018.54 1018.59 1018.87 1019.25 1019.62 1019.86 1019.88 1019.62 1019.08 1018.30 1017.38 1016.43 1015.55 1014.85 1014.39 1014.21 1014.32 1014.68 1015.24 1015.93 1016.69 1017.47 1018.21 1018.88 1019.47 1019.97 1020.39 1020.74 1021.04 1021.31 1021.57
1024.31 1024.55 1024.77 1024.89 1024.83 1024.55 1024.03 1023.30 1022.41 1021.48 1020.62 1019.93 1019.50 1019.37 1019.52 1019.91 1020.40 1020.88 1021.22 1021.32 1021.11 1020.58 1019.76 1018.73 1017.62 1016.53 1015.59 1014.87 1014.42 1014.28 1014.43 1014.82 1015.39 1016.08 1016.82 1017.57 1018.27 1018.91 1019.46 1019.94 1020.34 1020.69 1021.01 1021.32
1025.72 1025.82 1025.88 1025.84 1025.65 1025.25 1024.66 1023.90 1023.02 1022.12 1021.30 1020.66 1020.28 1020.20 1020.39 1020.81 1021.36 1021.89 1022.30 1022.47 1022.33 1021.86 1021.07 1020.03 1018.86 1017.66 1016.55 1015.63 1014.96 1014.58 1014.49 1014.67 1015.07 1015.62 1016.27 1016.97 1017.65 1018.31 1018.90 1019.43 1019.89 1020.31 1020.69 1021.05
1027.09 1027.03 1026.92 1026.72 1026.40 1025.94 1025.32 1024.58 1023.75 1022.92 1022.16 1021.56 1021.19 1021.09 1021.23 1021.60 1022.09 1022.60 1023.01 1023.21 1023.15 1022.76 1022.07 1021.12 1020.00 1018.80 1017.64 1016.60 1015.77 1015.18 1014.87 1014.82 1015.00 1015.37 1015.87 1016.45 1017.07 1017.70 1018.30 1018.86 1019.39 1019.87 1020.32 1020.74
1028.33 1028.11 1027.84 1027.52 1027.14 1026.66 1026.09 1025.44 1024.72 1023.99 1023.31 1022.74 1022.33 1022.13 1022.13 1022.33 1022.66 1023.03 1023.36 1023.54 1023.52 1023.24 1022.69 1021.90 1020.92 1019.83 1018.72 1017.67 1016.75 1016.02 1015.51 1015.24 1015.18 1015.32 1015.62 1016.04 1016.55 1017.10 1017.68 1018.26 1018.82 1019.37 1019.88 1020.38
1029.37 1029.02 1028.65 1028.28 1027.90 1027.49 1027.05 1026.55 1026.00 1025.41 1024.81 1024.24 1023.76 1023.39 1023.18 1023.11 1023.17 1023.30 1023.44 1023.53 1023.51 1023.31 1022.91 1022.32 1021.54 1020.64 1019.67 1018.69 1017.77 1016.96 1016.30 1015.83 1015.54 1015.44 1015.51 1015.73 1016.09 1016.54 1017.06 1017.62 1018.21 1018.80 1019.38 1019.94
1030.17 1029.75 1029.35 1029.00 1028.70 1028.44 1028.19 1027.90 1027.56 1027.13 1026.62 1026.06 1025.46 1024.89 1024.39 1023.99 1023.69 1023.50 1023.39 1023.31 1023.22 1023.07 1022.80 1022.40 1021.86 1021.18 1020.41 1019.56 1018.70 1017.87 1017.11 1016.47 1015.97 1015.64 1015.48 1015.50 1015.67 1015.99 1016.43 1016.96 1017.55 1018.18 1018.81 1019.44
1030.73 1030.31 1029.94 1029.68 1029.53 1029.47 1029.45 1029.41 1029.29 1029.03 1028.62 1028.04 1027.34 1026.55 1025.74 1024.97 1024.29 1023.74 1023.32 1023.02 1022.81 1022.64 1022.46 1022.23 1021.89 1021.45 1020.88 1020.20 1019.44 1018.63 1017.82 1017.06 1016.39 1015.85 1015.48 1015.29 1015.29 1015.46 1015.81 1016.29 1016.87 1017.51 1018.19 1018.87
1031.08 1030.71 1030.44 1030.32 1030.35 1030.51 1030.72 1030.92 1031.00 1030.89 1030.56 1029.97 1029.16 1028.18 1027.09 1025.99 1024.95 1024.05 1023.32 1022.78 1022.41 1022.18 1022.03 1021.90 1021.73 1021.47 1021.09 1020.57 1019.92 1019.17 1018.34 1017.50 1016.71 1016.01 1015.46 1015.09 1014.92 1014.96 1015.21 1015.62 1016.17 1016.82 1017.53 1018.26
1031.28 1031.00 1030.87 1030.90 1031.11 1031.46 1031.86 1032.23 1032.46 1032.46 1032.18 1031.58 1030.69 1029.55 1028.26 1026.90 1025.59 1024.41 1023.42 1022.66 1022.13 1021.81 1021.64 1021.55 1021.47 1021.34 1021.09 1020.70 1020.16 1019.46 1018.65 1017.78 1016.90 1016.09 1015.40 1014.89 1014.58 1014.50 1014.65 1014.99 1015.51 1016.15 1016.86 1017.62
1031.40 1031.26 1031.26 1031.43 1031.76 1032.22 1032.72 1033.16 1033.44 1033.48 1033.20 1032.59 1031.65 1030.44 1029.04 1027.55 1026.09 1024.74 1023.59 1022.68 1022.02 1021.60 1021.37 1021.28 1021.22 1021.15 1020.98 1020.67 1020.19 1019.55 1018.77 1017.89 1016.98 1016.10 1015.32 1014.70 1014.29 1014.11 1014.17 1014.45 1014.91 1015.52 1016.22 1016.98
1031.55 1031.54 1031.65 1031.91 1032.28 1032.74 1033.21 1033.60 1033.82 1033.80 1033.48 1032.84 1031.89 1030.69 1029.30 1027.81 1026.34 1024.97 1023.77 1022.80 1022.08 1021.59 1021.30 1021.15 1021.07 1020.99 1020.83 1020.56 1020.12 1019.52 1018.77 1017.90 1016.98 1016.08 1015.25 1014.57 1014.08 1013.82 1013.80 1014.01 1014.41 1014.97 1015.64 1016.38
1031.81 1031.91 1032.09 1032.36 1032.68 1033.03 1033.34 1033.55 1033.59 1033.42 1033.00 1032.32 1031.39 1030.26 1028.98 1027.63 1026.29 1025.03 1023.92 1023.00 1022.27 1021.75 1021.41 1021.20 1021.06 1020.92 1020.74 1020.45 1020.02 1019.45 1018.72 1017.88 1016.97 1016.07 1015.22 1014.51 1013.97 1013.64 1013.56 1013.69 1014.03 1014.52 1015.14 1015.83
1032.21 1032.40 1032.60 1032.80 1032.97 1033.10 1033.14 1033.06 1032.83 1032.43 1031.87 1031.13 1030.24 1029.24 1028.16 1027.04 1025.95 1024.92 1024.00 1023.20 1022.55 1022.05 1021.67 1021.40 1021.18 1020.97 1020.72 1020.40 1019.96 1019.38 1018.68 1017.87 1016.99 1016.10 1015.26 1014.53 1013.96 1013.59 1013.44 1013.50 1013.76 1014.19 1014.73 1015.36
1032.76 1033.01 1033.17 1033.24 1033.19 1033.02 1032.71 1032.26 1031.70 1031.04 1030.30 1029.51 1028.68 1027.83 1026.99 1026.18 1025.40 1024.66 1023.99 1023.39 1022.85 1022.40 1022.01 1021.68 1021.38 1021.09 1020.77 1020.39 1019.92 1019.35 1018.66 1017.88 1017.04 1016.17 1015.35 1014.61 1014.02 1013.61 1013.41 1013.41 1013.60 1013.95 1014.42 1014.98
1033.43 1033.68 1033.77 1033.66 1033.35 1032.83 1032.15 1031.33 1030.42 1029.49 1028.59 1027.74 1026.97 1026.30 1025.71 1025.21 1024.75 1024.33 1023.93 1023.53 1023.13 1022.73 1022.35 1021.97 1021.60 1021.22 1020.83 1020.39 1019.89 1019.31 1018.64 1017.88 1017.07 1016.24 1015.44 1014.71 1014.11 1013.67 1013.43 1013.37 1013.50 1013.79 1014.19 1014.68
1034.11 1034.33 1034.30 1033.99 1033.41 1032.57 1031.53 1030.37 1029.17 1028.01 1026.97 1026.09 1025.40 1024.89 1024.54 1024.32 1024.15 1024.01 1023.83 1023.61 1023.33 1022.98 1022.59 1022.17 1021.73 1021.28 1020.81 1020.33 1019.80 1019.21 1018.55 1017.83 1017.05 1016.25 1015.47 1014.75 1014.15 1013.70 1013.43 1013.34 1013.43 1013.66 1014.02 1014.45
1034.67 1034.81 1034.64 1034.14 1033.32 1032.21 1030.91 1029.49 1028.08 1026.77 1025.66 1024.79 1024.18 1023.82 1023.67 1023.66 1023.71 1023.76 1023.75 1023.64 1023.42 1023.09 1022.67 1022.20 1021.69 1021.18 1020.66 1020.13 1019.58 1019.00 1018.35 1017.65 1016.90 1016.13 1015.38 1014.68 1014.08 1013.63 1013.36 1013.25 1013.32 1013.54 1013.87 1014.28
1034.95 1034.98 1034.67 1034.00 1033.00 1031.72 1030.25 1028.71 1027.20 1025.85 1024.75 1023.93 1023.42 1023.18 1023.17 1023.30 1023.49 1023.64 1023.70 1023.62 1023.40 1023.04 1022.57 1022.03 1021.46 1020.89 1020.33 1019.77 1019.21 1018.62 1018.00 1017.32 1016.60 1015.86 1015.13 1014.45 1013.88 1013.44 1013.17 1013.08 1013.16 1013.37 1013.71 1014.12
1034.84 1034.73 1034.28 1033.49 1032.39 1031.04 1029.53 1027.99 1026.52 1025.24 1024.22 1023.51 1023.11 1022.98 1023.06 1023.25 1023.47 1023.63 1023.67 1023.55 1023.27 1022.83 1022.29 1021.68 1021.05 1020.42 1019.83 1019.25 1018.68 1018.10 1017.49 1016.84 1016.15 1015.43 1014.73 1014.08 1013.53 1013.12 1012.88 1012.81 1012.92 1013.17 1013.53 1013.96
1034.25 1033.99 1033.42 1032.56 1031.44 1030.13 1028.71 1027.29 1025.97 1024.86 1024.01 1023.45 1023.17 1023.12 1023.24 1023.44 1023.62 1023.72 1023.66 1023.44 1023.05 1022.52 1021.88 1021.19 1020.50 1019.83 1019.21 1018.62 1018.05 1017.47 1016.88 1016.24 1015.57 1014.88 1014.21 1013.59 1013.07 1012.70 1012.49 1012.47 1012.61 1012.90 1013.31 1013.78
1033.16 1032.75 1032.11 1031.23 1030.17 1028.99 1027.76 1026.57 1025.50 1024.64 1024.01 1023.62 1023.47 1023.49 1023.61 1023.77 1023.86 1023.84 1023.65 1023.30 1022.78 1022.13 1021.40 1020.64 1019.90 1019.20 1018.55 1017.94 1017.37 1016.80 1016.21 1015.58 1014.93 1014.26 1013.61 1013.03 1012.55 1012.21 1012.06 1012.08 1012.27 1012.61 1013.06 1013.58
1031.61 1031.09 1030.41 1029.58 1028.66 1027.68 1026.71 1025.82 1025.07 1024.49 1024.10 1023.91 1023.87 1023.94 1024.05 1024.13 1024.11 1023.95 1023.62 1023.12 1022.48 1021.73 1020.92 1020.10 1019.32 1018.59 1017.92 1017.30 1016.72 1016.14 1015.55 1014.93 1014.28 1013.63 1013.01 1012.46 1012.02 1011.73 1011.62 1011.68 1011.92 1012.30 1012.80 1013.36
1029.70 1029.12 1028.46 1027.74 1027.01 1026.30 1025.64 1025.09 1024.66 1024.37 1024.23 1024.21 1024.27 1024.37 1024.44 1024.44 1024.30 1024.01 1023.54 1022.93 1022.18 1021.35 1020.49 1019.63 1018.81 1018.06 1017.37 1016.73 1016.13 1015.53 1014.93 1014.30 1013.66 1013.03 1012.44 1011.93 1011.53 1011.29 1011.22 1011.33 1011.60 1012.02 1012.55 1013.14
1027.59 1027.00 1026.42 1025.87 1025.38 1024.96 1024.64 1024.41 1024.30 1024.29 1024.36 1024.48 1024.61 1024.71 1024.74 1024.64 1024.39 1023.99 1023.42 1022.71 1021.90 1021.02 1020.12 1019.24 1018.41 1017.63 1016.91 1016.25 1015.61 1014.98 1014.36 1013.72 1013.09 1012.48 1011.92 1011.45 1011.11 1010.91 1010.89 1011.04 1011.35 1011.80 1012.34 1012.96
1025.45 1024.92 1024.48 1024.14 1023.91 1023.80 1023.79 1023.88 1024.04 1024.25 1024.48 1024.69 1024.86 1024.94 1024.90 1024.72 1024.38 1023.88 1023.24 1022.48 1021.63 1020.74 1019.83 1018.93 1018.08 1017.28 1016.53 1015.81 1015.13 1014.47 1013.81 1013.17 1012.55 1011.97 1011.46 1011.05 1010.76 1010.63 1010.66 1010.86 1011.20 1011.67 1012.23 1012.85
Thickness
5524 5517 5509 5509 5510 5512 5510 5507 5506 5512 5517 5518 5520 5527 5536 5539 5538 5538 5539 5540 5542 5545 5549 5550 5552 5555 5558 5561 5564 5567 5570 5574 5576 5578 5579 5580 5582 5585 5588 5590 5592 5594 5596 5598
5512 5505 5508 5508 5508 5507 5504 5501 5499 5505 5511 5512 5512 5520 5528 5530 5531 5533 5532 5532 5533 5536 5539 5541 5543 5544 5547 5552 5554 5558 5561 5565 5566 5568 5570 5571 5572 5575 5579 5580 5582 5585 5587 5589
5505 5503 5506 5505 5501 5500 5498 5495 5495 5496 5501 5504 5504 5518 5525 5528 5527 5526 5525 5525 5526 5528 5528 5531 5532 5534 5537 5541 5544 5549 5552 5555 5556 5558 5559 5560 5561 5564 5566 5570 5573 5576 5578 5580
5495 5498 5501 5498 5494 5494 5494 5497 5495 5493 5488 5487 5492 5500 5518 5517 5518 5520 5518 5517 5518 5519 5520 5521 5523 5525 5528 5531 5535 5539 5543 5546 5547 5547 5549 5551 5553 5554 5558 5561 5564 5566 5568 5570
5492 5492 5493 5493 5492 5490 5489 5492 5489 5487 5481 5479 5483 5481 5507 5507 5510 5514 5513 5512 5512 5511 5512 5513 5514 5517 5520 5522 5525 5529 5533 5536 5537 5537 5539 5539 5542 5545 5547 5550 5554 5556 5559 5561
5488 5489 5487 5488 5488 5487 5486 5484 5482 5474 5472 5473 5479 5476 5494 5497 5503 5508 5508 5507 5505 5504 5504 5505 5507 5509 5512 5514 5517 5521 5524 5526 5528 5528 5529 5529 5532 5534 5537 5541 5544 5548 5550 5552
5484 5486 5484 5483 5483 5481 5478 5471 5466 5467 5459 5470 5478 5474 5487 5500 5498 5498 5498 5498 5497 5496 5496 5497 5499 5502 5504 5506 5509 5512 5515 5516 5518 5519 5521 5522 5524 5526 5529 5533 5535 5538 5541 5543
5478 5479 5477 5476 5476 5470 5467 5466 5460 5461 5461 5467 5469 5472 5491 5495 5491 5490 5489 5488 5488 5488 5488 5490 5491 5493 5495 5497 5500 5503 5506 5508 5509 5510 5511 5513 5515 5517 5520 5524 5527 5529 5530 5533
5467 5473 5474 5473 5471 5470 5462 5452 5454 5445 5439 5444 5461 5469 5483 5488 5486 5484 5483 5482 5480 5480 5481 5482 5484 5485 5486 5488 5491 5494 5497 5498 5499 5500 5503 5505 5507 5509 5512 5515 5517 5520 5521 5523
5463 5462 5467 5466 5468 5462 5458 5450 5438 5438 5442 5449 5460 5464 5476 5480 5477 5476 5474 5472 5472 5472 5472 5474 5476 5477 5479 5480 5482 5484 5486 5489 5491 5493 5495 5498 5499 5501 5504 5505 5507 5509 5512 5515
5458 5455 5457 5457 5454 5452 5450 5444 5436 5428 5430 5435 5444 5469 5477 5473 5470 5467 5466 5464 5464 5464 5465 5467 5469 5469 5470 5472 5474 5477 5479 5480 5482 5484 5487 5489 5490 5492 5494 5496 5498 5500 5503 5506
5449 5442 5442 5446 5444 5444 5444 5440 5432 5435 5427 5417 5419 5453 5471 5464 5462 5459 5458 5458 5458 5458 5459 5460 5462 5462 5464 5466 5468 5470 5471 5472 5474 5476 5478 5479 5481 5483 5485 5487 5490 5492 5494 5498
5444 5438 5445 5454 5445 5435 5431 5429 5424 5419 5415 5409 5418 5453 5463 5456 5455 5454 5451 5451 5451 5452 5452 5453 5454 5456 5458 5459 5461 5462 5463 5464 5466 5468 5469 5471 5473 5474 5477 5478 5480 5482 5485 5488
5443 5432 5440 5454 5451 5434 5425 5422 5417 5414 5413 5411 5420 5442 5456 5453 5450 5448 5446 5445 5444 5445 5446 5445 5446 5448 5450 5451 5452 5454 5455 5456 5457 5458 5460 5461 5463 5465 5467 5469 5471 5472 5476 5479
5435 5430 5425 5428 5430 5426 5426 5424 5414 5411 5415 5419 5430 5431 5446 5443 5440 5437 5437 5439 5439 5438 5439 5439 5439 5441 5443 5444 5444 5446 5446 5447 5448 5449 5450 5451 5454 5456 5458 5459 5461 5463 5466 5468
5421 5422 5420 5423 5427 5422 5423 5426 5419 5416 5413 5413 5420 5429 5438 5433 5431 5430 5430 5431 5431 5430 5431 5431 5433 5434 5435 5436 5437 5437 5438 5439 5439 5440 5440 5443 5445 5447 5448 5450 5451 5453 5455 5457
5409 5412 5417 5420 5415 5424 5429 5432 5423 5418 5415 5415 5422 5432 5431 5428 5428 5426 5425 5425 5423 5423 5423 5423 5425 5426 5427 5428 5429 5429 5429 5430 5431 5432 5433 5435 5436 5438 5439 5440 5441 5442 5444 5446
5404 5403 5398 5403 5410 5427 5444 5429 5424 5420 5419 5413 5419 5422 5421 5421 5421 5419 5417 5416 5416 5416 5416 5416 5416 5418 5419 5420 5420 5420 5421 5422 5422 5423 5425 5426 5427 5428 5429 5430 5431 5433 5435 5436
5402 5399 5390 5390 5396 5411 5430 5426 5417 5414 5421 5418 5415 5417 5415 5414 5416 5417 5416 5413 5411 5410 5409 5408 5409 5409 5410 5411 5411 5411 5413 5413 5414 5415 5415 5416 5417 5418 5419 5420 5422 5424 5425 5427
5391 5389 5384 5381 5397 5416 5436 5424 5414 5414 5419 5421 5412 5411 5409 5407 5410 5415 5413 5408 5405 5403 5402 5402 5403 5402 5403 5403 5403 5404 5405 5405 5405 5406 5407 5407 5408 5409 5410 5411 5413 5414 5416 5417
5384 5380 5379 5378 5384 5406 5419 5412 5412 5414 5423 5418 5409 5407 5404 5400 5402 5404 5403 5402 5399 5398 5396 5396 5396 5395 5395 5395 5395 5396 5396 5396 5397 5397 5398 5398 5399 5400 5400 5402 5403 5404 5406 5408
5384 5378 5373 5373 5381 5409 5414 5406 5407 5414 5412 5409 5405 5402 5399 5396 5396 5396 5395 5394 5392 5390 5389 5389 5388 5388 5388 5387 5388 5388 5387 5388 5389 5389 5390 5390 5390 5391 5392 5393 5394 5395 5397 5398
5383 5388 5387 5391 5410 5412 5404 5405 5406 5402 5402 5401 5398 5397 5394 5392 5390 5390 5388 5386 5384 5382 5382 5381 5380 5380 5380 5380 5380 5381 5381 5381 5381 5382 5381 5381 5382 5382 5384 5384 5386 5387 5388 5389
5381 5378 5380 5383 5400 5402 5399 5397 5397 5396 5395 5395 5393 5391 5389 5386 5385 5383 5380 5378 5376 5376 5375 5374 5373 5373 5374 5374 5374 5373 5374 5374 5374 5374 5373 5374 5374 5375 5375 5377 5378 5379 5379 5380
5389 5374 5376 5382 5395 5396 5401 5397 5396 5394 5391 5389 5388 5386 5384 5381 5379 5376 5374 5372 5370 5370 5368 5367 5366 5366 5367 5368 5367 5367 5367 5367 5366 5366 5366 5367 5367 5367 5368 5368 5369 5370 5372 5373
5383 5381 5385 5401 5402 5396 5400 5398 5393 5389 5387 5385 5383 5381 5378 5375 5373 5371 5368 5366 5365 5363 5363 5361 5361 5361 5361 5361 5360 5360 5360 5359 5359 5360 5359 5360 5360 5360 5360 5361 5362 5364 5366 5368